Overview Statistics Trail Chart Weather Telemetry Raw packets
 

This is the latest recevied weather packets stored in our database for station/object DP0GVN-13. If no packets are shown the sender has not sent any weather packets the latest 10 day(s).

<< 12 13 14 15 16 17 18 >>
Time Temp. Humidity Pressure Rain* Wind** Luminosity Snow
1777554012 -30° C 76% 978.5 hPa - - 1 W/m² -
1777552212 -30° C 84% 978.6 hPa - - 1 W/m² -
1777550412 -30° C 81% 978.5 hPa - - 1 W/m² -
1777548612 -30° C 79% 978.4 hPa - - 1 W/m² -
1777546812 -28.89° C 77% 978.4 hPa - - 1 W/m² -
1777545012 -30° C 81% 978.6 hPa - - 1 W/m² -
1777543212 -30° C 80% 978.5 hPa - - 0 W/m² -
1777541412 -25.56° C 80% 978.2 hPa - - 0 W/m² -
1777539612 -25° C 77% 978.2 hPa - - 0 W/m² -
1777537812 -25.56° C 81% 978.2 hPa - - 0 W/m² -
1777536012 -25.56° C 79% 977.9 hPa - - 0 W/m² -
1777534212 -27.78° C 81% 978.1 hPa - - 0 W/m² -
1777532412 -30° C 76% 978 hPa - - 0 W/m² -
1777530612 -30° C 78% 977.8 hPa - - 0 W/m² -
1777528812 -30.56° C 78% 977.8 hPa - - 0 W/m² -
1777527012 -28.89° C 75% 977.8 hPa - - 0 W/m² -
1777525219 -30° C 75% 977.8 hPa - - 0 W/m² -
1777523412 -28.89° C 75% 978 hPa - - 0 W/m² -
1777521612 -27.78° C 72% 977.9 hPa - - 0 W/m² -
1777519812 -27.78° C 73% 978 hPa - - 0 W/m² -
1777518012 -27.78° C 73% 977.9 hPa - - 0 W/m² -
1777516212 -27.78° C 75% 977.7 hPa - - 0 W/m² -
1777514412 -27.78° C 73% 977.8 hPa - - 0 W/m² -
1777512612 -26.67° C 73% 977.7 hPa - - 0 W/m² -
1777510812 -26.67° C 75% 977.7 hPa - - 0 W/m² -

* Rain since midnight (hover to see other rain measurements)
** Current wind speed in m/s (hover to see current wind gust speed)